This is the latest recevied weather packets stored in our database for station/object DG3RAP-11. If no packets are shown the sender has not sent any weather packets the latest 10 day(s).
| Time | Temp. | Humidity | Pressure | Rain* | Wind** | Luminosity | Snow |
|---|---|---|---|---|---|---|---|
| 1777746963 | 20° C | 29% | 1017.2 hPa | 0 mm | - | - | - |
| 1777745343 | 20.56° C | 30% | 1017.2 hPa | 0 mm | - | - | - |
| 1777741743 | 22.78° C | 28% | 1017.5 hPa | 0 mm | - | - | - |
| 1777739763 | 23.33° C | 28% | 1017.6 hPa | 0 mm | - | - | - |
| 1777739223 | 23.89° C | 27% | 1017.6 hPa | 0 mm | - | - | - |
| 1777738683 | 23.89° C | 27% | 1017.7 hPa | 0 mm | - | - | - |
| 1777738143 | 23.89° C | 27% | 1017.8 hPa | 0 mm | - | - | - |
| 1777736163 | 23.89° C | 27% | 1018.1 hPa | 0 mm | - | - | - |
| 1777735623 | 23.89° C | 27% | 1018.4 hPa | 0 mm | - | - | - |
| 1777735083 | 23.89° C | 28% | 1018.4 hPa | 0 mm | - | - | - |
| 1777734543 | 23.89° C | 28% | 1018.5 hPa | 0 mm | - | - | - |
| 1777734003 | 23.89° C | 27% | 1018.7 hPa | 0 mm | - | - | - |
| 1777733643 | 24.44° C | 27% | 1018.9 hPa | 0 mm | - | - | - |
| 1777732563 | 23.89° C | 26% | 1018.9 hPa | 0 mm | - | - | - |
| 1777732023 | 24.44° C | 27% | 1019 hPa | 0 mm | - | - | - |
| 1777731483 | 25.56° C | 26% | 1019.2 hPa | 0 mm | - | - | - |
| 1777730943 | 23.89° C | 29% | 1019.4 hPa | 0 mm | - | - | - |
| 1777730043 | 24.44° C | 28% | 1019.5 hPa | 0 mm | - | - | - |
| 1777729503 | 23.33° C | 29% | 1019.5 hPa | 0 mm | - | - | - |
| 1777728963 | 24.44° C | 30% | 1019.8 hPa | 0 mm | - | - | - |
| 1777728423 | 23.33° C | 30% | 1019.9 hPa | 0 mm | - | - | - |
| 1777727883 | 23.33° C | 28% | 1020 hPa | 0 mm | - | - | - |
| 1777727343 | 25.56° C | 28% | 1020.1 hPa | 0 mm | - | - | - |
| 1777726803 | 23.33° C | 28% | 1020.3 hPa | 0 mm | - | - | - |
| 1777725363 | 24.44° C | 30% | 1020.8 hPa | 0 mm | - | - | - |
* Rain latest hour (hover to see other rain measurements)
** Current wind speed in m/s (hover to see current wind gust speed)